Temp
10 10 10 10 11 10 11 11 10 11 11 11 11 11 11 10 10 10 10 11 10 10 10 10 10 9 9 9 8 9 9 9 9 9 8 9 9 9 9 9 8 8 8 8 8
10 10 10 11 11 11 10 11 11 11 11 11 11 11 10 10 10 11 10 10 10 10 10 10 9 9 7 8 8 8 9 8 8 8 8 8 8 8 9 8 7 8 8 8 8
10 10 11 11 11 11 11 11 11 11 11 11 11 11 10 10 10 10 10 10 10 10 10 10 9 9 8 8 8 8 8 7 7 8 8 8 8 8 8 8 8 8 8 8 8
10 11 11 11 11 11 11 11 11 11 11 11 11 11 10 10 9 10 10 10 10 10 10 10 9 8 7 7 8 7 7 7 7 7 7 8 7 8 8 8 8 8 7 8 8
11 11 11 11 11 11 11 11 11 11 11 11 11 10 10 10 10 10 10 10 10 10 10 9 8 8 7 7 8 7 7 7 7 7 7 7 7 7 8 7 7 7 7 7 7
11 11 11 11 11 11 11 11 11 11 11 11 11 10 10 10 10 10 10 9 9 10 10 9 9 9 8 8 8 8 8 8 8 8 7 7 7 7 7 7 7 7 7 7 7
11 11 11 11 11 11 11 11 11 11 11 10 10 10 10 10 10 10 9 9 9 9 9 9 9 9 9 8 8 8 7 7 7 8 8 7 7 7 7 7 7 7 7 7 7
10 11 11 11 11 11 11 11 11 11 10 10 10 10 10 10 10 10 9 9 9 9 9 9 9 9 9 8 8 8 8 8 8 8 7 7 6 7 7 7 7 7 7 7 7
10 10 11 11 11 11 11 11 10 10 10 9 9 9 9 9 9 9 9 9 9 9 9 9 9 9 8 8 8 8 9 9 8 8 8 7 6 6 6 6 6 7 7 7 7
10 10 10 11 11 11 11 10 10 10 9 9 9 9 9 9 9 9 9 9 9 9 9 8 9 8 8 8 9 10 10 10 8 7 7 6 6 6 6 6 6 6 7 7 7
10 10 10 10 10 10 10 10 9 9 9 9 9 9 9 9 9 9 9 9 9 8 7 8 8 8 8 9 9 9 9 9 8 8 6 6 5 5 6 6 6 6 6 7 7
9 10 10 10 10 10 10 10 9 9 9 9 9 8 8 8 8 8 8 8 8 7 7 8 8 8 9 9 9 8 8 9 8 8 7 5 4 4 5 5 5 5 6 6 6
9 10 10 10 10 10 10 10 9 9 9 8 8 8 8 8 8 8 8 8 7 7 7 7 7 8 8 8 8 7 8 8 7 7 7 6 4 4 3 4 5 5 5 5 6
9 9 10 10 10 10 10 10 9 9 8 8 8 8 8 8 7 7 7 7 7 6 7 7 7 7 7 7 7 7 7 7 6 6 7 6 6 4 3 3 4 4 5 5 5
9 9 9 9 9 9 9 9 9 8 10 7 8 8 7 7 7 7 7 7 7 6 7 7 7 7 6 7 7 6 7 7 6 6 6 7 6 4 3 2 3 4 4 4 4
9 9 9 9 9 9 9 9 9 8 9 8 8 8 7 7 7 7 7 7 7 7 7 7 7 7 7 7 6 6 6 6 6 5 5 7 7 4 4 3 3 3 3 4 4
8 8 8 9 9 9 9 9 9 9 8 8 8 7 6 7 7 7 7 7 6 6 6 6 6 7 6 6 6 6 6 6 5 4 5 8 7 4 3 3 3 4 3 3 3
8 8 8 8 8 8 8 9 8 8 7 8 8 7 6 7 6 7 6 5 6 6 5 7 6 5 6 6 5 5 6 6 5 6 6 6 6 2 3 4 3 3 3 3 2
8 8 8 8 8 8 8 8 8 9 9 8 7 6 5 6 6 6 6 5 6 6 6 6 6 5 5 6 5 5 5 6 5 7 6 7 3 2 3 3 2 2 2 2 2
8 8 8 8 8 8 7 7 8 8 8 7 6 6 7 5 5 5 5 5 6 5 5 4 5 5 5 5 5 5 5 5 5 4 5 7 4 2 3 3 1 1 1 1 1
7 7 7 7 7 7 7 7 7 7 7 6 6 5 5 4 5 4 4 5 5 5 4 5 4 4 4 4 4 4 4 4 4 5 4 3 1 1 1 1 1 -0 1 1 1
7 7 7 7 7 7 7 7 7 7 7 6 6 6 5 5 4 3 3 5 4 4 4 4 3 3 4 4 4 4 4 3 3 3 4 4 2 1 -0 0 -0 -1 1 -0 -0
6 7 6 6 6 7 6 6 6 6 6 6 5 5 5 4 4 3 4 4 4 3 3 3 2 3 3 3 2 1 2 2 2 2 2 2 2 1 -0 -1 -1 -1 -0 -0 -1
6 6 6 6 6 6 6 6 6 6 5 5 5 4 4 4 3 3 3 3 3 2 2 2 2 2 2 1 1 0 1 1 1 1 2 2 1 -0 -1 -1 -2 -2 -1 -2 -2
6 6 6 6 6 6 5 5 5 5 5 4 4 4 3 3 2 2 2 2 2 2 1 1 1 0 1 1 0 0 -0 -1 -1 -1 -1 0 -1 -2 -3 -3 -3 -3 -3 -3 -4
6 6 6 6 5 5 5 5 5 4 4 4 3 3 2 1 2 1 1 1 1 1 1 1 -1 -0 1 1 0 0 -0 -1 -2 -2 -2 -2 -2 -2 -3 -3 -4 -4 -5 -6 -6
5 5 5 5 5 5 5 5 4 4 3 3 3 2 3 2 1 1 1 0 -0 -0 0 -0 -1 -2 -1 -1 -1 -1 -1 -2 -2 -2 -2 -3 -4 -3 -4 -4 -5 -6 -7 -7 -8
Height
3144 3143 3142 3142 3142 3143 3143 3143 3142 3141 3141 3142 3143 3145 3146 3147 3148 3148 3149 3150 3151 3151 3151 3151 3150 3150 3150 3150 3151 3152 3155 3157 3158 3158 3161 3163 3163 3165 3166 3165 3165 3164 3166 3166 3165
3142 3142 3141 3141 3141 3142 3142 3141 3141 3141 3141 3142 3144 3145 3146 3147 3147 3148 3150 3150 3151 3151 3151 3150 3150 3150 3152 3152 3153 3154 3157 3157 3159 3160 3162 3163 3164 3166 3168 3165 3163 3164 3165 3166 3166
3142 3141 3141 3141 3141 3140 3140 3140 3141 3141 3142 3143 3144 3145 3146 3147 3148 3149 3150 3150 3151 3151 3151 3151 3151 3151 3152 3153 3154 3155 3155 3158 3158 3159 3160 3164 3163 3164 3164 3165 3166 3166 3165 3166 3166
3140 3140 3140 3140 3140 3140 3140 3140 3140 3142 3142 3143 3144 3145 3146 3147 3150 3149 3150 3151 3152 3151 3151 3151 3152 3152 3153 3155 3155 3157 3156 3157 3158 3159 3160 3161 3162 3163 3164 3165 3166 3166 3165 3165 3165
3139 3139 3140 3140 3141 3141 3141 3141 3141 3142 3143 3144 3144 3145 3147 3148 3150 3150 3151 3151 3151 3151 3151 3151 3152 3152 3155 3155 3155 3157 3155 3156 3157 3159 3161 3162 3162 3162 3164 3164 3164 3164 3164 3164 3164
3139 3139 3140 3140 3140 3140 3140 3141 3141 3142 3143 3144 3145 3146 3147 3149 3149 3149 3150 3151 3151 3151 3151 3151 3152 3152 3153 3154 3154 3156 3156 3157 3157 3158 3160 3161 3161 3161 3163 3162 3162 3161 3162 3162 3162
3138 3138 3138 3139 3139 3139 3140 3142 3142 3143 3144 3145 3145 3146 3146 3149 3148 3149 3149 3150 3150 3150 3150 3151 3152 3152 3153 3154 3155 3156 3157 3158 3158 3159 3160 3160 3160 3161 3161 3160 3160 3159 3159 3158 3158
3138 3138 3139 3139 3139 3140 3141 3142 3143 3143 3144 3144 3145 3146 3146 3147 3148 3148 3148 3149 3149 3150 3150 3150 3151 3152 3153 3154 3156 3157 3158 3158 3158 3158 3160 3161 3159 3160 3160 3159 3158 3157 3156 3155 3155
3138 3138 3138 3139 3139 3139 3140 3140 3142 3143 3143 3144 3146 3146 3147 3147 3147 3148 3148 3148 3149 3149 3150 3150 3151 3152 3154 3155 3156 3156 3156 3157 3158 3158 3159 3160 3157 3158 3158 3157 3156 3154 3153 3152 3152
3138 3138 3138 3138 3139 3139 3139 3140 3141 3142 3143 3145 3146 3148 3147 3147 3146 3147 3147 3148 3149 3149 3150 3151 3152 3153 3154 3155 3156 3156 3156 3156 3157 3158 3158 3158 3156 3156 3156 3155 3154 3152 3152 3150 3149
3139 3138 3138 3139 3139 3139 3140 3140 3144 3145 3144 3145 3146 3146 3146 3147 3147 3148 3148 3148 3149 3150 3150 3151 3153 3154 3154 3153 3154 3154 3154 3156 3155 3157 3158 3157 3155 3154 3154 3154 3152 3151 3150 3149 3147
3140 3140 3140 3140 3140 3140 3141 3141 3142 3144 3144 3145 3145 3145 3146 3146 3146 3146 3148 3149 3148 3150 3151 3153 3152 3152 3153 3153 3153 3153 3155 3156 3155 3155 3156 3155 3154 3153 3152 3152 3151 3150 3148 3147 3145
3141 3141 3140 3140 3140 3141 3141 3142 3142 3143 3144 3145 3145 3145 3146 3147 3146 3146 3148 3147 3148 3149 3151 3151 3150 3151 3151 3151 3152 3153 3154 3154 3154 3153 3155 3155 3154 3152 3151 3150 3149 3148 3147 3146 3144
3142 3141 3141 3141 3143 3141 3142 3142 3143 3144 3145 3148 3146 3146 3146 3145 3146 3146 3146 3148 3148 3149 3150 3151 3149 3149 3149 3150 3151 3153 3152 3152 3152 3153 3153 3153 3153 3151 3149 3148 3147 3146 3146 3145 3143
3142 3142 3141 3141 3142 3143 3144 3143 3143 3145 3145 3147 3145 3145 3145 3147 3147 3147 3147 3147 3147 3147 3150 3150 3148 3148 3149 3149 3150 3149 3149 3150 3150 3151 3152 3151 3153 3148 3147 3146 3145 3145 3145 3144 3143
3141 3141 3141 3141 3141 3143 3142 3143 3144 3147 3143 3144 3144 3144 3145 3145 3146 3147 3147 3148 3148 3147 3147 3146 3147 3148 3147 3148 3148 3149 3149 3148 3147 3148 3147 3143 3145 3147 3146 3144 3143 3144 3144 3144 3143
3140 3140 3140 3140 3141 3141 3142 3144 3146 3144 3146 3145 3143 3144 3145 3145 3144 3145 3145 3146 3147 3147 3146 3146 3145 3145 3146 3146 3147 3147 3147 3147 3149 3147 3143 3140 3143 3143 3142 3141 3141 3142 3143 3143 3142
3139 3139 3139 3139 3139 3140 3141 3144 3144 3143 3142 3142 3143 3143 3144 3144 3144 3144 3144 3145 3144 3145 3146 3147 3146 3143 3144 3144 3144 3146 3148 3146 3144 3142 3142 3140 3140 3140 3139 3139 3139 3140 3141 3141 3141
3137 3137 3138 3138 3139 3140 3141 3141 3139 3140 3141 3141 3142 3142 3143 3142 3143 3142 3142 3141 3142 3143 3145 3144 3143 3143 3142 3143 3145 3145 3144 3146 3144 3140 3137 3135 3137 3136 3136 3137 3136 3137 3139 3140 3140
3135 3136 3137 3137 3138 3139 3140 3139 3138 3139 3139 3139 3140 3142 3144 3142 3143 3143 3142 3140 3139 3139 3139 3140 3141 3142 3142 3142 3142 3142 3144 3143 3142 3142 3138 3128 3132 3134 3132 3134 3135 3134 3135 3137 3137
3134 3134 3135 3136 3136 3138 3138 3136 3137 3137 3137 3138 3137 3138 3140 3140 3141 3142 3139 3139 3137 3138 3138 3139 3139 3140 3139 3140 3138 3140 3140 3142 3141 3138 3136 3135 3135 3134 3133 3132 3133 3133 3133 3133 3134
3132 3133 3133 3134 3136 3134 3134 3135 3136 3134 3135 3135 3136 3135 3135 3137 3138 3139 3137 3136 3136 3136 3136 3136 3138 3139 3137 3137 3138 3137 3136 3136 3138 3136 3134 3134 3134 3134 3133 3131 3131 3130 3131 3132 3132
3130 3131 3131 3132 3132 3132 3133 3132 3132 3133 3133 3132 3133 3133 3134 3135 3137 3133 3133 3134 3134 3135 3134 3134 3134 3135 3133 3135 3132 3132 3133 3133 3133 3134 3133 3136 3133 3132 3132 3130 3129 3127 3129 3128 3128
3129 3129 3130 3129 3129 3130 3130 3130 3130 3130 3130 3130 3131 3131 3132 3131 3131 3130 3130 3132 3132 3132 3133 3133 3132 3132 3133 3132 3131 3130 3130 3131 3131 3130 3130 3130 3129 3129 3129 3127 3126 3124 3124 3123 3122
3126 3126 3127 3128 3127 3127 3129 3129 3127 3128 3129 3128 3127 3127 3128 3129 3129 3128 3128 3129 3128 3129 3129 3129 3128 3128 3126 3127 3126 3125 3126 3126 3127 3127 3127 3127 3127 3127 3123 3123 3123 3121 3121 3119 3117
3124 3124 3124 3125 3124 3125 3125 3126 3125 3125 3125 3126 3126 3127 3126 3126 3126 3125 3125 3126 3126 3126 3124 3124 3124 3125 3122 3122 3122 3121 3121 3120 3121 3120 3120 3121 3123 3121 3121 3120 3119 3119 3116 3114 3113
3122 3121 3121 3121 3121 3121 3121 3121 3121 3122 3122 3121 3122 3123 3121 3124 3124 3123 3122 3123 3125 3124 3124 3124 3122 3121 3121 3118 3117 3117 3114 3114 3115 3114 3116 3117 3116 3116 3116 3116 3115 3115 3114 3111 3109
Wind_Speed
9 7 6 5 5 4 3 2 3 3 5 6 9 9 9 7 6 5 4 4 4 4 6 7 10 10 13 13 19 13 7 9 7 5 5 6 1 6 4 1 2 4 3 6 9
9 8 6 5 5 4 3 3 3 3 5 6 8 8 7 6 4 3 2 2 2 3 4 9 8 10 6 10 12 8 10 8 6 10 6 6 10 5 4 8 5 4 1 4 6
7 6 5 4 3 3 4 3 2 3 4 5 7 8 6 4 3 3 1 1 1 2 4 6 6 8 6 9 11 6 6 7 6 14 13 7 4 9 8 10 6 4 6 4 6
6 6 5 3 3 3 2 2 2 3 3 5 6 7 7 5 4 2 2 2 2 2 2 4 5 7 6 1 8 3 8 9 4 9 12 11 2 6 10 7 8 7 7 9 8
4 4 4 3 1 1 1 1 2 3 4 5 5 6 6 7 3 2 3 3 1 2 2 2 4 5 2 2 9 2 3 6 6 10 8 5 6 6 5 8 10 11 13 13 13
3 2 2 2 1 1 2 2 2 4 4 5 5 6 6 4 4 4 4 3 4 3 1 0 2 2 5 5 7 5 6 6 5 5 9 8 9 12 8 12 14 15 12 12 14
3 2 1 0 1 3 3 4 4 6 6 5 5 5 4 1 3 4 4 4 3 2 1 0 1 3 4 5 7 9 8 5 4 4 6 6 2 6 7 8 9 11 11 11 12
3 2 1 1 3 4 4 6 6 6 6 5 4 3 1 1 1 2 2 2 3 2 1 1 2 3 4 5 8 7 7 6 3 2 3 2 7 5 6 8 11 13 12 13 11
5 4 3 3 3 4 5 6 6 5 5 4 3 2 2 2 2 2 2 1 1 0 0 1 2 3 5 6 2 3 9 10 5 5 6 4 7 8 8 10 11 12 11 12 13
6 7 5 4 4 5 5 6 5 5 6 5 5 1 2 1 2 2 1 0 0 1 2 2 3 2 2 3 4 8 5 5 2 1 5 9 11 11 8 9 10 10 10 12 13
5 5 5 4 3 4 4 6 7 6 6 3 3 4 3 3 3 2 2 1 0 1 7 3 2 2 7 13 8 1 3 1 7 9 8 6 9 8 8 8 10 11 11 12 13
4 5 4 4 3 3 3 2 4 4 4 3 4 4 4 4 4 3 2 2 1 4 2 2 2 9 11 10 7 4 1 6 8 8 5 8 7 8 8 8 9 10 10 11 12
5 5 5 4 4 3 3 3 4 3 3 1 2 2 3 4 4 2 2 2 2 1 4 4 10 7 7 4 2 3 5 2 6 7 6 8 11 11 7 8 9 9 9 10 10
3 3 3 3 3 2 2 3 4 2 3 2 3 2 1 1 1 1 2 2 2 4 4 5 10 8 4 2 4 4 7 8 6 3 4 10 1 12 11 8 7 7 8 8 8
1 1 1 1 2 1 1 2 3 2 3 4 4 3 3 3 2 1 1 1 4 4 4 5 5 3 1 8 5 7 8 8 6 9 10 12 6 14 13 9 10 5 5 4 4
5 4 3 2 0 0 1 3 4 1 2 3 2 2 2 3 3 3 2 2 3 5 6 10 6 8 9 7 8 7 6 7 8 6 7 16 20 16 12 17 13 8 6 2 2
6 7 6 5 2 3 2 2 3 2 3 3 4 4 5 5 3 3 5 4 3 2 4 6 6 7 9 6 5 6 1 4 3 4 3 7 13 7 17 17 16 10 9 6 2
5 5 4 5 4 4 5 4 1 4 7 6 4 4 4 5 6 6 3 3 6 6 3 6 5 5 3 9 6 2 7 5 3 2 1 4 5 8 17 18 16 12 11 9 6
6 5 4 4 4 5 5 4 6 7 7 6 3 4 7 9 8 5 6 11 8 6 7 2 4 6 8 7 8 7 5 7 7 18 10 7 7 9 15 13 13 14 13 12 10
6 6 5 5 5 6 6 8 9 8 9 7 5 6 4 6 3 2 6 5 4 6 8 6 3 8 9 9 9 11 8 3 5 3 4 10 6 3 9 8 11 13 15 15 15
5 5 5 5 6 7 8 14 11 12 11 9 11 8 10 8 9 6 10 9 9 7 7 7 6 4 6 7 7 3 3 5 8 8 2 3 2 4 6 8 8 13 15 16 15
5 4 4 6 8 9 11 13 11 11 11 12 11 12 11 11 9 9 11 13 6 7 8 7 5 6 11 10 12 14 13 10 4 5 3 3 3 3 6 10 10 16 15 14 15
5 5 6 6 6 9 10 11 11 11 10 9 9 10 11 12 7 12 16 13 13 12 6 4 4 4 5 8 6 8 11 13 14 10 11 3 4 3 9 11 13 18 16 16 17
6 4 4 7 8 12 9 9 9 9 9 10 10 11 11 11 13 9 13 9 11 11 12 11 12 10 7 7 7 5 8 10 10 7 7 12 10 10 10 14 16 19 18 20 22
6 6 6 5 5 9 10 10 9 10 10 10 10 12 12 10 11 14 16 14 14 14 13 11 13 11 18 17 20 19 18 17 18 16 13 10 7 8 11 11 16 20 21 23 24
8 8 8 9 8 10 10 12 12 10 12 12 14 11 11 14 15 12 11 13 16 11 12 13 9 14 17 13 18 21 20 18 18 19 21 21 19 23 22 19 18 22 22 21 22
10 10 10 11 11 12 13 13 14 12 13 14 14 13 16 13 14 14 15 14 15 13 12 10 9 6 6 8 14 16 15 14 16 17 15 11 14 17 15 14 13 9 14 20 24
Wind_Direction
311 310 331 340 350 349 355 13 50 109 129 143 151 151 145 145 142 124 109 85 58 50 41 30 35 34 45 72 99 96 119 118 90 118 93 83 255 194 138 199 92 65 65 33 22
309 311 324 338 341 346 351 25 50 77 131 143 156 157 148 143 144 129 97 85 70 47 27 38 43 45 5 74 103 63 125 132 113 115 98 127 124 121 94 143 104 194 92 22 8
298 304 307 320 333 348 2 11 59 67 123 145 154 160 158 163 189 150 175 55 78 52 27 49 56 63 61 77 118 68 163 137 150 154 119 102 149 157 147 188 211 294 311 330 329
309 307 309 318 339 346 358 16 92 100 98 138 151 163 171 174 188 210 211 208 170 28 13 58 63 56 76 333 116 80 145 148 194 159 146 155 78 195 195 203 236 273 301 294 297
316 308 303 301 297 339 44 59 119 129 109 122 142 160 186 203 214 191 210 208 219 321 353 44 96 88 9 133 88 120 152 173 185 186 187 179 167 227 222 261 265 272 274 283 286
329 313 294 268 175 116 85 79 116 136 132 119 139 161 186 207 223 237 239 237 276 285 280 332 99 144 179 156 148 157 123 112 120 168 187 208 224 247 260 266 265 268 270 273 271
358 350 309 199 131 116 139 147 144 152 151 144 146 166 184 183 235 239 249 260 276 279 278 191 168 188 155 147 141 140 102 76 97 119 161 202 263 241 259 262 260 273 271 283 258
62 77 116 133 131 126 150 158 155 149 148 146 152 164 166 209 232 263 269 275 278 280 278 199 182 182 193 138 157 144 161 202 225 217 195 177 263 265 250 268 275 288 293 291 282
68 80 91 95 87 109 138 146 154 149 142 136 159 183 199 269 259 258 283 283 268 265 155 141 154 157 142 120 151 204 242 212 261 227 234 204 259 260 249 263 275 282 286 290 292
59 63 69 79 88 98 112 130 142 163 161 164 185 184 229 243 226 208 175 191 229 105 97 99 128 96 44 215 287 279 229 207 226 276 168 211 227 259 262 266 276 280 287 296 301
65 67 67 78 98 104 115 138 146 170 185 255 239 245 260 235 245 258 283 277 265 92 76 27 91 297 163 213 227 175 169 101 217 258 168 212 244 268 268 271 276 282 289 295 298
66 69 67 81 91 109 125 160 158 152 192 209 214 223 217 227 257 239 229 230 154 82 269 66 286 235 247 260 237 210 170 236 257 292 183 243 249 268 275 275 280 287 291 299 306
53 58 70 76 73 91 107 140 142 137 134 163 221 230 245 246 260 302 264 206 198 163 250 203 238 262 247 232 212 295 217 246 260 283 209 235 248 270 277 271 272 283 293 301 305
26 42 45 50 57 72 116 140 143 97 78 347 283 269 268 209 266 268 237 203 141 186 225 219 263 257 246 138 214 266 248 264 243 245 294 219 145 206 245 271 273 287 300 305 311
305 324 6 50 30 15 115 138 152 147 229 250 243 269 208 219 250 283 278 239 206 233 191 236 267 233 140 228 244 244 258 262 232 242 281 236 246 167 223 254 279 274 284 306 332
281 275 262 255 229 165 157 154 161 193 182 219 233 222 210 257 278 292 312 323 300 277 234 256 273 253 241 270 253 264 287 294 274 247 249 249 208 184 211 242 263 253 242 248 20
277 271 266 251 219 211 199 177 164 269 226 245 230 220 203 262 273 269 305 316 236 304 245 299 273 278 257 259 280 257 146 221 245 201 245 123 184 186 201 220 245 251 231 236 258
276 272 248 239 214 200 176 184 220 211 223 256 240 227 181 255 268 272 295 306 256 223 252 272 261 260 240 207 177 192 247 284 297 34 139 189 204 194 227 239 258 241 230 235 244
268 263 245 227 217 201 194 201 216 245 261 240 236 228 268 245 241 250 236 240 271 250 202 264 238 259 261 244 215 204 222 252 295 284 266 190 182 199 247 252 240 234 236 241 249
246 247 243 230 230 234 223 246 244 249 252 236 177 224 230 257 226 187 268 260 254 227 212 252 273 268 276 257 254 241 242 269 230 269 260 201 143 231 229 248 239 237 241 247 253
247 236 235 239 242 241 217 245 270 260 250 230 221 231 206 231 204 220 235 264 252 245 229 246 234 254 293 235 194 198 243 255 268 268 263 324 91 107 292 260 255 242 254 256 261
252 245 233 253 257 248 255 259 272 262 251 244 248 240 232 241 231 222 248 243 262 245 229 232 236 258 254 253 250 248 231 228 227 301 245 284 251 259 212 253 255 255 269 271 269
256 263 262 253 253 265 263 270 269 264 255 248 243 243 245 245 237 236 256 262 256 254 255 253 214 282 240 261 249 225 244 230 230 254 270 278 266 249 195 233 244 262 274 276 275
275 267 254 263 263 270 278 271 260 267 254 253 256 252 250 243 235 253 262 267 260 255 253 250 233 218 270 299 240 233 259 260 246 216 256 264 298 285 249 227 241 257 269 272 273
262 268 268 267 267 274 280 281 277 265 263 259 256 250 244 247 252 251 259 265 261 258 254 253 256 247 251 250 262 263 258 251 257 253 254 236 255 276 282 246 257 262 270 271 271
268 268 262 272 272 278 275 275 276 271 263 263 259 262 248 231 238 247 261 259 263 265 254 249 256 267 281 272 265 274 269 264 257 254 248 254 265 261 259 263 259 272 274 266 271
269 270 271 271 271 269 270 272 271 269 263 263 264 257 253 260 258 262 265 267 268 272 276 266 253 284 276 274 292 285 256 255 259 265 257 249 247 264 270 270 276 263 265 287 285